Location: *
(45.4590°N, 16.3650°E)
Time: 09:58:09
(UTC+00:00)

STARLINK-1101 - Pass Details

Date: 17 January 2020
Orbit: 537 x 539 km, 53.0° (Epoch: 19 February)

Event Time Altitude Azimuth Distance (km) Brightness Sun altitude
Rises 16:12:32 0° 221° (SW) 2,662 8.5 -6.0°
Reaches altitude 10° 16:14:48 10° 216° (SW) 1,772 7.3 -6.4°
Maximum altitude 16:18:41 50° 141° (SE) 680 4.0 -7.0°
Drops below altitude 10° 16:22:34 10° 66° (ENE) 1,770 5.5 -7.6°
Enters shadow 16:22:37 10° 65° (ENE) 1,790 5.5 -7.7°
